timestamp,surface_pressure_avg,surface_temp_avg,battery_voltage,lat,long
2019-09-24 00:00:00+00:00,253.3098,7.6,12.89,47.84626,-54.09684
2019-09-24 00:10:00+00:00,249.0381,7.63,12.81,47.84626,-54.09684
2019-09-24 00:20:00+00:00,249.6614,7.65,12.97,47.84626,-54.09684
2019-09-24 00:30:00+00:00,247.3347,7.67,12.97,47.84626,-54.09684
2019-09-24 00:40:00+00:00,242.4881,7.66,12.97,47.84626,-54.09684
2019-09-24 00:50:00+00:00,238.0898,7.66,12.97,47.84626,-54.09684
2019-09-24 01:00:00+00:00,235.5898,7.68,12.89,47.84626,-54.09684
2019-09-24 01:10:00+00:00,236.1147,7.69,12.81,47.84626,-54.09684
2019-09-24 01:20:00+00:00,239.0147,7.7,12.97,47.84626,-54.09684
2019-09-24 01:30:00+00:00,239.9748,7.7,12.97,47.84626,-54.09684
2019-09-24 01:40:00+00:00,236.9064,7.7,12.97,47.84626,-54.09684
2019-09-24 01:50:00+00:00,237.0748,7.7,12.97,47.84626,-54.09684
2019-09-24 02:00:00+00:00,233.8931,7.7,12.89,47.84626,-54.09684
2019-09-24 02:10:00+00:00,230.8864,7.7,12.81,47.84626,-54.09684
2019-09-24 02:20:00+00:00,232.4097,7.7,12.97,47.84626,-54.09684
2019-09-24 02:30:00+00:00,236.558,7.7,12.97,47.84626,-54.09684
2019-09-24 02:40:00+00:00,241.4564,7.7,12.97,47.84626,-54.09684
2019-09-24 02:50:00+00:00,247.1214,7.7,12.97,47.84626,-54.09684
2019-09-24 03:00:00+00:00,250.9064,7.72,12.89,47.84626,-54.09684
2019-09-24 03:10:00+00:00,255.1964,7.72,12.81,47.84626,-54.09684
2019-09-24 03:20:00+00:00,261.5814,7.72,12.89,47.84626,-54.09684
2019-09-24 03:30:00+00:00,266.1248,7.73,12.97,47.84626,-54.09684
2019-09-24 03:40:00+00:00,266.7198,7.75,12.97,47.84626,-54.09684
2019-09-24 03:50:00+00:00,269.4214,7.75,12.97,47.84626,-54.09684
2019-09-24 04:00:00+00:00,277.1198,7.75,12.89,47.84626,-54.09684
2019-09-24 04:10:00+00:00,282.6647,7.73,12.81,47.84626,-54.09684
2019-09-24 04:20:00+00:00,284.0314,7.75,12.89,47.84626,-54.09684
2019-09-24 04:30:00+00:00,290.3013,7.76,12.89,47.84626,-54.09684
2019-09-24 04:40:00+00:00,301.8947,7.77,12.97,47.84626,-54.09684
2019-09-24 04:50:00+00:00,305.653,7.74,12.97,47.84626,-54.09684
2019-09-24 05:00:00+00:00,303.8096,7.76,12.89,47.84626,-54.09684
2019-09-24 05:10:00+00:00,313.3263,7.78,12.81,47.84626,-54.09684
2019-09-24 05:20:00+00:00,321.9547,7.78,12.89,47.84626,-54.09684
2019-09-24 05:30:00+00:00,318.028,7.79,12.89,47.84626,-54.09684
2019-09-24 05:40:00+00:00,313.203,7.8,12.89,47.84626,-54.09684
2019-09-24 05:50:00+00:00,319.5697,7.8,12.89,47.84626,-54.09684
2019-09-24 06:00:00+00:00,327.2129,7.84,12.81,47.84626,-54.09684
2019-09-24 06:10:00+00:00,322.8196,7.89,12.81,47.84626,-54.09684
2019-09-24 06:20:00+00:00,323.1896,7.9,12.89,47.84626,-54.09684
2019-09-24 06:30:00+00:00,325.9863,7.9,12.89,47.84626,-54.09684
2019-09-24 06:40:00+00:00,331.023,7.9,12.89,47.84626,-54.09684
2019-09-24 06:50:00+00:00,326.718,7.93,12.89,47.84626,-54.09684
2019-09-24 07:00:00+00:00,326.5679,7.99,12.81,47.84626,-54.09684
2019-09-24 07:10:00+00:00,329.8646,8.0,12.73,47.84626,-54.09684
2019-09-24 07:20:00+00:00,332.3496,8.0,12.81,47.84626,-54.09684
2019-09-24 07:30:00+00:00,330.438,8.0,12.81,47.84626,-54.09684
2019-09-24 07:40:00+00:00,327.2364,8.05,12.89,47.84626,-54.09684
2019-09-24 07:50:00+00:00,327.0764,8.08,12.89,47.84626,-54.09684
2019-09-24 08:00:00+00:00,324.0013,8.1,12.81,47.84626,-54.09684
2019-09-24 08:10:00+00:00,319.243,8.24,12.73,47.84626,-54.09684
2019-09-24 08:20:00+00:00,314.368,8.36,12.81,47.84626,-54.09684
2019-09-24 08:30:00+00:00,316.9496,8.45,12.81,47.84626,-54.09684
2019-09-24 08:40:00+00:00,314.828,8.53,12.81,47.84626,-54.09684
2019-09-24 08:50:00+00:00,309.703,8.63,12.81,47.84626,-54.09684
2019-09-24 09:00:00+00:00,303.533,8.7,12.81,47.84626,-54.09684
2019-09-24 09:10:00+00:00,304.1664,8.7,12.73,47.84626,-54.09684
2019-09-24 09:20:00+00:00,299.0563,8.79,12.81,47.84626,-54.09684
2019-09-24 09:30:00+00:00,291.173,8.82,12.81,47.84626,-54.09684
2019-09-24 09:40:00+00:00,286.4664,8.88,12.81,47.84626,-54.09684
2019-09-24 09:50:00+00:00,283.8381,8.9,12.81,47.84626,-54.09684
2019-09-24 10:00:00+00:00,278.4631,8.9,12.81,47.84626,-54.09684
2019-09-24 10:10:00+00:00,273.3398,8.9,12.73,47.84626,-54.09684
2019-09-24 10:20:00+00:00,268.9681,8.9,12.81,47.84626,-54.09684
2019-09-24 10:30:00+00:00,266.9764,8.9,12.89,47.84626,-54.09684
2019-09-24 10:40:00+00:00,263.3297,8.9,13.21,47.84626,-54.09684
2019-09-24 10:50:00+00:00,263.6081,8.9,13.6,47.84626,-54.09684
2019-09-24 11:00:00+00:00,262.7881,8.9,13.76,47.84626,-54.09684
2019-09-24 11:10:00+00:00,257.8765,8.9,13.84,47.84626,-54.09684
2019-09-24 11:20:00+00:00,254.4165,8.91,14.08,47.84626,-54.09684
2019-09-24 11:30:00+00:00,254.6631,8.96,14.24,47.84626,-54.09684
2019-09-24 11:40:00+00:00,252.9548,8.99,15.67,47.84626,-54.09684
2019-09-24 11:50:00+00:00,248.4748,9.0,14.64,47.84626,-54.09684
2019-09-24 12:00:00+00:00,250.3264,9.0,14.4,47.84626,-54.09684
2019-09-24 12:10:00+00:00,251.1347,9.0,15.27,47.84626,-54.09684
2019-09-24 12:20:00+00:00,249.8631,9.1,15.2,47.84626,-54.09684
2019-09-24 12:30:00+00:00,248.6547,9.17,15.04,47.84626,-54.09684
2019-09-24 12:40:00+00:00,252.7131,9.23,14.48,47.84626,-54.09684
2019-09-24 12:50:00+00:00,252.2364,9.3,14.64,47.84626,-54.09684
2019-09-24 13:00:00+00:00,250.6164,9.3,14.24,47.84626,-54.09684
2019-09-24 13:10:00+00:00,247.3931,9.4,14.08,47.84626,-54.09684
2019-09-24 13:20:00+00:00,245.7848,9.56,14.08,47.84626,-54.09684
2019-09-24 13:30:00+00:00,245.5764,9.64,14.08,47.84626,-54.09684
2019-09-24 13:40:00+00:00,250.0264,9.58,14.08,47.84626,-54.09684
2019-09-24 13:50:00+00:00,250.0965,9.6,14.08,47.84626,-54.09684
2019-09-24 14:00:00+00:00,245.3615,9.7,14.0,47.84626,-54.09684
2019-09-24 14:10:00+00:00,243.8548,9.79,13.92,47.84626,-54.09684
2019-09-24 14:20:00+00:00,248.1897,9.79,14.0,47.84626,-54.09684
2019-09-24 14:30:00+00:00,245.0581,9.7,14.24,47.84626,-54.09684
2019-09-24 14:40:00+00:00,244.2347,9.8,14.56,47.84626,-54.09684
2019-09-24 14:50:00+00:00,248.7431,9.8,14.56,47.84626,-54.09684
2019-09-24 15:00:00+00:00,252.4864,9.8,14.4,47.84626,-54.09684
2019-09-24 15:10:00+00:00,256.6747,9.6,14.16,47.84626,-54.09684
2019-09-24 15:20:00+00:00,256.8131,9.6,14.16,47.84626,-54.09684
2019-09-24 15:30:00+00:00,261.3231,9.63,14.24,47.84626,-54.09684
2019-09-24 15:40:00+00:00,268.6364,9.5,14.48,47.84626,-54.09684
2019-09-24 15:50:00+00:00,271.0531,9.5,14.48,47.84626,-54.09684
2019-09-24 16:00:00+00:00,270.1164,9.6,14.4,47.84626,-54.09684
2019-09-24 16:10:00+00:00,279.743,9.5,14.24,47.84626,-54.09684
2019-09-24 16:20:00+00:00,289.8781,9.5,14.32,47.84626,-54.09684
2019-09-24 16:30:00+00:00,295.6947,9.54,14.24,47.84626,-54.09684
2019-09-24 16:40:00+00:00,300.4231,9.5,14.24,47.84626,-54.09684
2019-09-24 16:50:00+00:00,304.9514,9.5,14.24,47.84626,-54.09684
2019-09-24 17:00:00+00:00,310.4714,9.5,14.24,47.84626,-54.09684
2019-09-24 17:10:00+00:00,316.473,9.51,14.24,47.84626,-54.09684
2019-09-24 17:20:00+00:00,319.5329,9.53,14.32,47.84626,-54.09684
2019-09-24 17:30:00+00:00,319.3314,9.54,14.16,47.84626,-54.09684
2019-09-24 17:40:00+00:00,329.423,9.57,14.24,47.84626,-54.09684
2019-09-24 17:50:00+00:00,336.7047,9.58,14.32,47.84626,-54.09684
2019-09-24 18:00:00+00:00,335.9813,9.6,14.32,47.84626,-54.09684
2019-09-24 18:10:00+00:00,335.1563,9.6,14.16,47.84626,-54.09684
2019-09-24 18:20:00+00:00,339.6547,9.6,14.16,47.84626,-54.09684
2019-09-24 18:30:00+00:00,342.5779,9.6,14.16,47.84626,-54.09684
2019-09-24 18:40:00+00:00,343.1413,9.6,14.16,47.84626,-54.09684
2019-09-24 18:50:00+00:00,345.233,9.6,14.16,47.84626,-54.09684
2019-09-24 19:00:00+00:00,351.2013,9.6,14.08,47.84626,-54.09684
2019-09-24 19:10:00+00:00,352.5513,9.6,14.0,47.84626,-54.09684
2019-09-24 19:20:00+00:00,351.4379,9.6,14.0,47.84626,-54.09684
2019-09-24 19:30:00+00:00,354.218,9.6,14.0,47.84626,-54.09684
2019-09-24 19:40:00+00:00,359.8114,9.6,14.0,47.84626,-54.09684
2019-09-24 19:50:00+00:00,361.1529,9.6,14.0,47.84626,-54.09684
2019-09-24 20:00:00+00:00,358.3963,9.6,13.84,47.84626,-54.09684
2019-09-24 20:10:00+00:00,361.6313,9.6,13.68,47.84626,-54.09684
2019-09-24 20:20:00+00:00,363.338,9.63,13.68,47.84626,-54.09684
2019-09-24 20:30:00+00:00,356.568,9.67,13.6,47.84626,-54.09684
2019-09-24 20:40:00+00:00,353.1263,9.67,13.6,47.84626,-54.09684
2019-09-24 20:50:00+00:00,351.0796,9.68,13.6,47.84626,-54.09684
2019-09-24 21:00:00+00:00,352.0714,9.67,13.44,47.84626,-54.09684
2019-09-24 21:10:00+00:00,348.5229,9.6,13.29,47.84626,-54.09684
2019-09-24 21:20:00+00:00,345.3613,9.6,13.29,47.84626,-54.09684
2019-09-24 21:30:00+00:00,338.5063,9.6,13.29,47.84626,-54.09684
2019-09-24 21:40:00+00:00,330.8547,9.6,13.21,47.84626,-54.09684
2019-09-24 21:50:00+00:00,326.4313,9.6,13.21,47.84626,-54.09684
2019-09-24 22:00:00+00:00,321.3663,9.6,13.13,47.84626,-54.09684
2019-09-24 22:10:00+00:00,313.7531,9.6,12.97,47.84626,-54.09684
2019-09-24 22:20:00+00:00,308.3564,9.6,12.97,47.84626,-54.09684
2019-09-24 22:30:00+00:00,304.7113,9.6,12.97,47.84626,-54.09684
2019-09-24 22:40:00+00:00,293.8164,9.6,12.97,47.84626,-54.09684
2019-09-24 22:50:00+00:00,286.3781,9.6,13.05,47.84626,-54.09684
2019-09-24 23:00:00+00:00,287.8314,9.6,12.97,47.84626,-54.09684
2019-09-24 23:10:00+00:00,285.1014,9.6,12.89,47.84626,-54.09684
2019-09-24 23:20:00+00:00,276.8697,9.62,12.97,47.84626,-54.09684
2019-09-24 23:30:00+00:00,275.2897,9.6,12.97,47.84626,-54.09684
2019-09-24 23:40:00+00:00,276.7614,9.59,12.97,47.84626,-54.09684
2019-09-24 23:50:00+00:00,267.6397,9.6,12.97,47.84626,-54.09684
